Lid_Strength_Index
0 1 1 1 1 0 0 -0 -0 -0 -1 -1 -1 -1 -1 -1 -0 1 5 3 1 -1 1 5 5 6 6 7 7 9 13 14 13 13 11 10 10 9 9 9 9 8 9 8 7
0 1 1 1 1 1 0 0 0 -0 -0 -0 -1 -1 -1 -1 2 4 1 -2 -2 -1 5 7 8 7 9 8 8 11 13 13 12 11 11 10 10 9 10 10 10 9 8 7 7
0 1 1 1 1 1 1 0 0 -0 -0 -0 -0 -1 -1 0 5 4 -1 -2 -2 0 4 6 6 7 10 9 10 10 13 11 11 10 9 10 10 9 10 12 11 10 9 8 9
-0 0 1 1 1 1 0 0 0 -0 -0 -0 -0 -1 -0 3 11 3 -1 -2 -2 3 5 6 7 10 11 11 9 12 10 10 8 9 9 10 9 11 10 10 9 9 8 9 9
-0 0 0 0 1 0 0 0 -0 -0 -0 -0 -1 -1 3 7 6 2 -0 -0 3 5 6 7 9 9 11 11 10 12 10 9 9 9 10 9 10 10 11 10 9 9 9 9 9
-1 -0 0 0 0 0 0 0 -0 -0 -0 -0 -1 -0 5 10 2 2 2 4 4 6 7 7 8 9 10 10 11 11 10 10 9 9 9 10 10 10 11 10 10 10 10 10 10
-1 -0 -0 -0 -0 -0 -0 -0 -0 -0 -0 -0 -1 2 6 7 2 4 4 5 5 6 7 6 7 9 9 10 9 10 12 10 10 10 10 10 12 11 10 10 11 11 11 11 10
-1 -1 -0 -0 -0 -0 -0 -0 -0 -0 -0 -1 -0 3 8 4 3 3 4 5 5 5 5 6 6 7 9 9 10 12 13 14 10 10 10 10 14 11 11 11 12 12 12 11 11
1 1 -0 -0 -0 -0 -0 -0 -0 -0 -1 -1 3 5 8 3 4 3 4 5 6 6 6 5 6 9 10 12 13 13 15 14 12 10 11 12 14 12 11 12 12 12 12 11 12
1 2 1 1 0 -0 -0 -1 -0 0 0 1 2 8 6 7 5 3 5 5 6 7 8 8 10 12 12 14 16 14 15 14 14 12 13 13 14 13 12 12 12 12 13 12 12
1 1 1 1 1 1 1 2 5 6 4 7 6 7 6 6 5 5 5 6 6 8 11 10 13 14 11 12 11 12 14 14 13 11 13 13 13 13 12 13 13 13 13 13 13
1 1 1 1 1 1 3 5 5 5 8 4 5 5 5 6 8 6 5 8 9 11 10 12 14 10 10 10 11 12 14 14 13 11 13 13 14 13 13 12 12 11 12 13 15
1 1 1 0 1 2 3 3 3 4 8 7 5 6 6 6 8 8 7 8 10 11 11 13 11 9 10 12 12 13 14 15 14 13 14 15 15 14 13 12 12 11 12 13 14
2 1 1 1 2 2 4 2 3 3 12 10 8 6 7 7 9 6 6 7 9 11 10 12 10 11 12 13 12 15 12 12 13 15 18 15 18 15 14 14 13 12 13 14 15
2 2 1 0 3 3 2 1 2 4 20 9 9 6 6 8 9 9 8 8 11 11 11 13 13 13 13 13 12 14 13 14 14 16 17 16 18 16 13 13 13 12 13 14 15
2 2 1 1 2 2 1 2 3 13 19 12 10 11 10 9 11 10 10 9 9 12 12 12 12 12 12 13 12 12 14 14 15 16 20 17 16 15 15 13 12 13 13 15 15
2 2 2 -0 4 1 2 4 14 18 10 12 12 11 11 12 12 12 13 14 14 16 16 13 13 13 12 14 13 13 15 19 20 21 20 16 17 15 13 13 12 13 14 15 14
2 1 1 1 0 1 2 9 17 13 13 10 11 11 13 12 12 13 14 15 13 14 16 16 16 13 12 12 14 15 15 19 22 21 20 17 19 15 13 13 12 12 13 15 15
2 2 1 1 0 0 7 15 15 12 10 10 11 13 13 12 12 13 14 14 13 13 15 16 15 13 13 12 12 15 17 13 17 23 21 18 15 13 14 15 14 15 15 16 16
4 4 3 1 -0 3 9 13 12 9 8 9 14 11 14 12 13 13 14 12 12 11 11 12 16 13 13 12 12 13 13 17 16 21 22 19 18 15 15 14 15 16 16 17 17
4 6 4 -0 1 6 13 12 10 7 7 10 12 12 12 13 12 13 12 11 10 11 10 11 13 15 14 15 14 14 15 14 14 16 21 21 18 14 13 13 14 15 15 16 17
5 9 2 0 9 8 11 9 8 9 7 9 9 10 12 11 12 13 12 10 9 9 12 11 13 16 15 13 12 13 13 13 17 18 17 18 16 14 14 13 13 14 15 16 17
7 7 3 2 12 11 9 9 8 9 9 10 10 9 9 11 14 12 11 8 9 9 11 10 14 17 17 13 13 14 13 11 11 14 17 19 16 14 14 14 14 14 15 16 17
6 10 8 5 6 9 11 11 11 7 8 8 9 9 10 12 10 13 11 9 8 8 8 8 13 15 17 15 13 15 14 13 12 16 16 16 14 12 15 14 14 14 14 15 17
6 9 9 11 10 9 9 10 11 11 8 8 10 10 11 13 12 13 11 11 9 8 9 10 15 14 13 12 14 15 15 14 14 13 16 14 14 11 10 12 12 12 14 15 16
8 9 7 9 9 10 10 12 11 10 9 11 11 10 10 12 12 14 11 11 11 11 10 10 15 13 15 13 13 14 13 13 12 12 12 12 13 9 11 11 13 13 13 15 16
4 4 7 8 10 11 11 11 11 9 8 9 9 10 11 10 8 8 7 8 9 10 12 12 13 15 17 13 14 17 14 13 12 11 11 14 11 8 11 11 12 13 12 13 14